AEN6M EDDH-EGCC

Flight info

Callsign AEN6M
Flight time 1h 24m
Altitude 38000
Route WSN5G WSN N125 ITMIZ DCT MIMVA DCT OTBED
Aircraft A21N/M-SDE2E3FGHIRWXY/LB1

Departure

Time 2026-04-30 19:14
Airport Hamburg Helmut Schmidt Airport (EDDH)

Arrival

Time 2026-04-30 20:38
Airport Manchester Airport (EGCC)
Time Latitude Longitude Altitude Speed Heading
2026-04-30 18:17 53.62770 10.00271 62 ft 0 kts 63°
2026-04-30 18:57 53.62768 10.00265 62 ft 2 kts 63°
2026-04-30 18:57 53.62761 10.00242 62 ft 2 kts 63°
2026-04-30 18:57 53.62756 10.00227 62 ft 1 kts 63°
2026-04-30 18:58 53.62734 10.00192 62 ft 2 kts 17°
2026-04-30 18:58 53.62719 10.00189 62 ft 2 kts 354°
2026-04-30 18:58 53.62705 10.00195 62 ft 0 kts 334°
2026-04-30 18:59 53.62699 10.00201 62 ft 0 kts 330°
2026-04-30 19:02 53.62700 10.00200 62 ft 0 kts 330°
2026-04-30 19:03 53.62735 10.00168 62 ft 2 kts 332°
2026-04-30 19:03 53.62749 10.00155 62 ft 1 kts 332°
2026-04-30 19:04 53.62780 10.00128 62 ft 2 kts 332°
2026-04-30 19:04 53.62784 10.00123 62 ft 1 kts 332°
2026-04-30 19:05 53.62807 10.00103 62 ft 2 kts 332°
2026-04-30 19:05 53.62822 10.00091 62 ft 1 kts 332°
2026-04-30 19:06 53.62827 10.00086 62 ft 1 kts 332°
2026-04-30 19:06 53.62842 10.00069 62 ft 4 kts 317°
2026-04-30 19:06 53.62848 9.99978 62 ft 0 kts 245°
2026-04-30 19:07 53.62848 9.99977 62 ft 0 kts 245°
2026-04-30 19:11 53.62846 9.99973 62 ft 1 kts 245°
2026-04-30 19:12 53.62832 9.99919 62 ft 8 kts 244°
2026-04-30 19:12 53.62811 9.99845 62 ft 4 kts 244°
2026-04-30 19:12 53.62815 9.99794 62 ft 4 kts 322°
2026-04-30 19:13 53.62825 9.99784 62 ft 0 kts 330°
2026-04-30 19:13 53.62830 9.99779 62 ft 5 kts 330°
2026-04-30 19:13 53.63124 9.99525 62 ft 91 kts 333°
2026-04-30 19:14 53.63952 9.98807 67 ft 166 kts 334°
2026-04-30 19:14 53.65027 9.97865 755 ft 175 kts 333°
2026-04-30 19:14 53.66114 9.96880 1651 ft 178 kts 334°
2026-04-30 19:14 53.67248 9.95917 2441 ft 189 kts 335°
2026-04-30 19:15 53.68485 9.94897 3007 ft 200 kts 336°
2026-04-30 19:15 53.71084 9.92128 3725 ft 244 kts 302°
2026-04-30 19:15 53.71558 9.89278 4144 ft 261 kts 264°
2026-04-30 19:16 53.71097 9.86192 4748 ft 271 kts 248°
2026-04-30 19:16 53.70401 9.83182 5592 ft 273 kts 246°
2026-04-30 19:16 53.69051 9.77090 7360 ft 274 kts 248°
2026-04-30 19:17 53.68417 9.73994 8227 ft 274 kts 248°
2026-04-30 19:17 53.67175 9.67750 9890 ft 275 kts 249°
2026-04-30 19:17 53.66559 9.64635 10673 ft 275 kts 249°
2026-04-30 19:18 53.65424 9.59317 11362 ft 297 kts 244°
2026-04-30 19:18 53.63988 9.55061 11932 ft 312 kts 235°
2026-04-30 19:18 53.62702 9.51999 12655 ft 313 kts 234°
2026-04-30 19:19 53.61415 9.48998 13365 ft 314 kts 234°
2026-04-30 19:19 53.60102 9.45946 14054 ft 316 kts 234°
2026-04-30 19:19 53.57457 9.39796 15378 ft 319 kts 234°
2026-04-30 19:20 53.56147 9.36754 16004 ft 320 kts 234°
2026-04-30 19:20 53.54807 9.33646 16605 ft 323 kts 234°
2026-04-30 19:20 53.52054 9.27257 17570 ft 333 kts 234°
2026-04-30 19:21 53.50644 9.24001 17811 ft 345 kts 234°
2026-04-30 19:21 53.47663 9.17127 18223 ft 367 kts 234°
2026-04-30 19:22 53.44477 9.09801 18590 ft 387 kts 234°
2026-04-30 19:22 53.39415 8.98204 19416 ft 403 kts 235°
2026-04-30 19:23 53.34674 8.86128 20597 ft 405 kts 244°
2026-04-30 19:24 53.32425 8.77163 21319 ft 406 kts 250°
2026-04-30 19:24 53.31420 8.72605 21660 ft 408 kts 250°
2026-04-30 19:24 53.29400 8.63416 22310 ft 410 kts 250°
2026-04-30 19:25 53.26413 8.49649 23196 ft 413 kts 252°
2026-04-30 19:26 53.24641 8.40319 23741 ft 415 kts 253°
2026-04-30 19:26 53.22878 8.31002 24476 ft 412 kts 252°
2026-04-30 19:26 53.22008 8.26399 24892 ft 409 kts 253°
2026-04-30 19:27 53.20276 8.17278 25680 ft 405 kts 253°
2026-04-30 19:27 53.18545 8.08188 26462 ft 401 kts 253°
2026-04-30 19:28 53.17699 8.03695 26852 ft 399 kts 253°
2026-04-30 19:28 53.16019 7.94790 27614 ft 395 kts 254°
2026-04-30 19:29 53.14356 7.86014 28356 ft 391 kts 254°
2026-04-30 19:29 53.13524 7.81650 28722 ft 389 kts 254°
2026-04-30 19:30 53.11359 7.68579 29807 ft 383 kts 261°
2026-04-30 19:30 53.10762 7.59726 30553 ft 378 kts 268°
2026-04-30 19:31 53.10791 7.50893 31290 ft 374 kts 271°
2026-04-30 19:31 53.10852 7.46435 31656 ft 372 kts 271°
2026-04-30 19:31 53.10973 7.37725 32355 ft 369 kts 271°
2026-04-30 19:32 53.11033 7.33393 32701 ft 367 kts 271°
2026-04-30 19:32 53.11092 7.29078 33066 ft 365 kts 271°
2026-04-30 19:32 53.11150 7.24779 33421 ft 363 kts 271°
2026-04-30 19:32 53.11207 7.20480 33775 ft 361 kts 271°
2026-04-30 19:33 53.11264 7.16244 34125 ft 359 kts 271°
2026-04-30 19:33 53.11321 7.12045 34477 ft 357 kts 271°
2026-04-30 19:33 53.11377 7.07831 34819 ft 355 kts 270°
2026-04-30 19:33 53.11431 7.03610 35147 ft 353 kts 270°
2026-04-30 19:34 53.11482 6.99468 35457 ft 351 kts 270°
2026-04-30 19:34 53.11530 6.95348 35756 ft 350 kts 269°
2026-04-30 19:34 53.11617 6.87169 36275 ft 348 kts 269°
2026-04-30 19:35 53.11659 6.83067 36484 ft 348 kts 269°
2026-04-30 19:35 53.11698 6.79049 36661 ft 348 kts 269°
2026-04-30 19:35 53.11738 6.74914 36810 ft 349 kts 269°
2026-04-30 19:35 53.11776 6.70860 36945 ft 350 kts 269°
2026-04-30 19:36 53.11814 6.66701 37079 ft 351 kts 269°
2026-04-30 19:36 53.11849 6.62600 37204 ft 352 kts 269°
2026-04-30 19:36 53.11919 6.54178 37438 ft 353 kts 269°
2026-04-30 19:37 53.11951 6.49968 37545 ft 354 kts 269°
2026-04-30 19:37 53.11982 6.45812 37644 ft 355 kts 269°
2026-04-30 19:37 53.12040 6.37422 37814 ft 356 kts 269°
2026-04-30 19:38 53.12089 6.29021 37856 ft 361 kts 269°
2026-04-30 19:38 53.12137 6.20335 37859 ft 366 kts 269°
2026-04-30 19:39 53.12179 6.11615 37969 ft 367 kts 269°
2026-04-30 19:39 53.12214 6.02916 38126 ft 367 kts 269°
2026-04-30 19:40 53.12243 5.94167 38259 ft 367 kts 269°
2026-04-30 19:40 53.12265 5.85418 38363 ft 367 kts 269°
2026-04-30 19:41 53.12281 5.76672 38367 ft 367 kts 269°
2026-04-30 19:41 53.12290 5.67919 38369 ft 367 kts 269°
2026-04-30 19:42 53.12293 5.59156 38369 ft 367 kts 269°
2026-04-30 19:42 53.12289 5.50385 38369 ft 367 kts 269°
2026-04-30 19:43 53.12280 5.41690 38367 ft 367 kts 269°
2026-04-30 19:44 53.12252 5.28571 38357 ft 367 kts 268°
2026-04-30 19:44 53.12226 5.19848 38348 ft 367 kts 268°
2026-04-30 19:45 53.12194 5.11143 38344 ft 367 kts 268°
2026-04-30 19:45 53.12156 5.02370 38342 ft 367 kts 268°
2026-04-30 19:46 53.12115 4.93703 38339 ft 366 kts 268°
2026-04-30 19:46 53.12067 4.85044 38333 ft 365 kts 267°
2026-04-30 19:47 53.12010 4.76455 38325 ft 364 kts 266°
2026-04-30 19:47 53.11943 4.67874 38319 ft 363 kts 266°
2026-04-30 19:48 53.11869 4.59188 38317 ft 363 kts 267°
2026-04-30 19:48 53.11794 4.50567 38315 ft 363 kts 267°
2026-04-30 19:49 53.11711 4.41983 38315 ft 363 kts 267°
2026-04-30 19:49 53.11576 4.29056 38316 ft 363 kts 266°
2026-04-30 19:50 53.11480 4.20436 38315 ft 363 kts 266°
2026-04-30 19:50 53.11377 4.11842 38314 ft 362 kts 266°
2026-04-30 19:51 53.11269 4.03296 38314 ft 362 kts 266°
2026-04-30 19:51 53.11154 3.94727 38315 ft 362 kts 266°
2026-04-30 19:52 53.11033 3.86210 38315 ft 362 kts 266°
2026-04-30 19:52 53.10907 3.77692 38315 ft 362 kts 266°
2026-04-30 19:53 53.10774 3.69145 38315 ft 362 kts 266°
2026-04-30 19:53 53.10636 3.60673 38315 ft 362 kts 266°
2026-04-30 19:54 53.10492 3.52147 38315 ft 362 kts 266°
2026-04-30 19:54 53.10342 3.43700 38315 ft 361 kts 266°
2026-04-30 19:55 53.10209 3.35176 38315 ft 362 kts 268°
2026-04-30 19:55 53.10413 3.26647 38314 ft 363 kts 271°
2026-04-30 19:56 53.10965 3.18157 38312 ft 365 kts 272°
2026-04-30 19:56 53.11548 3.09631 38313 ft 365 kts 272°
2026-04-30 19:57 53.12135 3.01091 38308 ft 365 kts 271°
2026-04-30 19:57 53.12715 2.92584 38297 ft 364 kts 271°
2026-04-30 19:58 53.13290 2.84060 38282 ft 364 kts 271°
2026-04-30 19:58 53.13855 2.75555 38270 ft 363 kts 271°
2026-04-30 19:59 53.14420 2.66984 38264 ft 364 kts 271°
2026-04-30 20:00 53.15257 2.54128 38261 ft 364 kts 271°
2026-04-30 20:00 53.15808 2.45549 38261 ft 364 kts 271°
2026-04-30 20:01 53.16618 2.32747 38264 ft 364 kts 270°
2026-04-30 20:01 53.17151 2.24204 38261 ft 363 kts 270°
2026-04-30 20:02 53.17934 2.11474 38260 ft 363 kts 270°
2026-04-30 20:03 53.18708 1.98668 38260 ft 363 kts 270°
2026-04-30 20:03 53.19217 1.90143 38260 ft 363 kts 270°
2026-04-30 20:04 53.19719 1.81611 38260 ft 363 kts 270°
2026-04-30 20:05 53.20459 1.68821 38261 ft 363 kts 270°
2026-04-30 20:05 53.21188 1.56003 38261 ft 363 kts 270°
2026-04-30 20:06 53.21664 1.47488 38261 ft 363 kts 270°
2026-04-30 20:06 53.22136 1.38919 38261 ft 363 kts 270°
2026-04-30 20:07 53.22599 1.30396 38262 ft 363 kts 270°
2026-04-30 20:08 53.23287 1.17561 38260 ft 362 kts 270°
2026-04-30 20:08 53.23739 1.09031 38260 ft 362 kts 269°
2026-04-30 20:09 53.24185 1.00475 38260 ft 361 kts 269°
2026-04-30 20:09 53.24835 0.87698 38259 ft 361 kts 269°
2026-04-30 20:10 53.25470 0.74938 38250 ft 361 kts 269°
2026-04-30 20:11 53.26096 0.62120 38239 ft 361 kts 269°
2026-04-30 20:11 53.26506 0.53570 38235 ft 361 kts 269°
2026-04-30 20:12 53.27112 0.40715 38233 ft 361 kts 269°
2026-04-30 20:13 53.27508 0.32133 38239 ft 361 kts 268°
2026-04-30 20:13 53.27898 0.23551 38205 ft 362 kts 268°
2026-04-30 20:13 53.28093 0.19252 37809 ft 362 kts 269°
2026-04-30 20:14 53.28366 0.14986 37285 ft 364 kts 271°
2026-04-30 20:14 53.28769 0.10736 36808 ft 362 kts 273°
2026-04-30 20:14 53.29288 0.06552 36315 ft 362 kts 275°
2026-04-30 20:14 53.29924 0.02440 35673 ft 363 kts 277°
2026-04-30 20:15 53.30697 -0.01719 34870 ft 368 kts 279°
2026-04-30 20:15 53.31588 -0.05783 34040 ft 373 kts 282°
2026-04-30 20:15 53.32642 -0.09928 33172 ft 379 kts 284°
2026-04-30 20:15 53.33783 -0.13966 32279 ft 383 kts 286°
2026-04-30 20:16 53.34967 -0.18088 31449 ft 388 kts 286°
2026-04-30 20:16 53.36156 -0.22207 30666 ft 393 kts 287°
2026-04-30 20:16 53.37380 -0.26438 29874 ft 397 kts 287°
2026-04-30 20:16 53.38607 -0.30678 29076 ft 403 kts 287°
2026-04-30 20:17 53.39858 -0.35007 28254 ft 410 kts 287°
2026-04-30 20:17 53.41129 -0.39404 27403 ft 414 kts 288°
2026-04-30 20:17 53.42421 -0.43878 26524 ft 418 kts 288°
2026-04-30 20:17 53.43726 -0.48401 25618 ft 423 kts 288°
2026-04-30 20:18 53.45023 -0.52908 24688 ft 426 kts 289°
2026-04-30 20:18 53.46340 -0.57485 23717 ft 429 kts 289°
2026-04-30 20:18 53.47641 -0.62006 22849 ft 424 kts 289°
2026-04-30 20:18 53.48953 -0.66570 22248 ft 422 kts 288°
2026-04-30 20:19 53.50240 -0.71076 21635 ft 419 kts 288°
2026-04-30 20:19 53.51083 -0.74034 21231 ft 417 kts 289°
2026-04-30 20:19 53.52771 -0.79961 20408 ft 414 kts 289°
2026-04-30 20:19 53.54020 -0.84356 19772 ft 411 kts 289°
2026-04-30 20:20 53.55282 -0.88803 19118 ft 408 kts 289°
2026-04-30 20:20 53.56513 -0.93149 18473 ft 406 kts 289°
2026-04-30 20:20 53.57734 -0.97477 17829 ft 403 kts 289°
2026-04-30 20:20 53.58947 -1.01783 17189 ft 401 kts 289°
2026-04-30 20:21 53.60038 -1.06114 17010 ft 399 kts 285°
2026-04-30 20:21 53.60963 -1.10610 17034 ft 399 kts 282°
2026-04-30 20:21 53.61707 -1.15201 17058 ft 398 kts 279°
2026-04-30 20:21 53.62355 -1.19828 17083 ft 399 kts 278°
2026-04-30 20:22 53.62987 -1.24472 17109 ft 400 kts 278°
2026-04-30 20:22 53.63618 -1.29126 17135 ft 401 kts 278°
2026-04-30 20:22 53.64247 -1.33777 17161 ft 401 kts 278°
2026-04-30 20:22 53.64874 -1.38421 17187 ft 401 kts 278°
2026-04-30 20:23 53.65510 -1.43147 17213 ft 400 kts 278°
2026-04-30 20:23 53.66139 -1.47820 17193 ft 396 kts 278°
2026-04-30 20:23 53.66756 -1.52410 16655 ft 391 kts 278°
2026-04-30 20:23 53.67366 -1.56991 15692 ft 393 kts 278°
2026-04-30 20:24 53.67976 -1.61621 14775 ft 393 kts 278°
2026-04-30 20:24 53.68559 -1.66195 13991 ft 390 kts 277°
2026-04-30 20:24 53.69123 -1.70731 13271 ft 385 kts 277°
2026-04-30 20:24 53.69675 -1.75277 12500 ft 383 kts 277°
2026-04-30 20:25 53.69640 -1.84170 11049 ft 371 kts 249°
2026-04-30 20:25 53.68548 -1.88150 10411 ft 369 kts 238°
2026-04-30 20:26 53.65585 -1.95362 9128 ft 367 kts 231°
2026-04-30 20:26 53.62468 -2.02371 7846 ft 368 kts 231°
2026-04-30 20:26 53.60903 -2.05928 7325 ft 369 kts 231°
2026-04-30 20:27 53.57751 -2.13048 6867 ft 369 kts 231°
2026-04-30 20:27 53.54604 -2.20101 6267 ft 368 kts 231°
2026-04-30 20:28 53.51433 -2.27245 5948 ft 375 kts 231°
2026-04-30 20:28 53.48292 -2.34317 5731 ft 360 kts 231°
2026-04-30 20:29 53.45248 -2.41067 5468 ft 356 kts 230°
2026-04-30 20:30 53.41037 -2.50570 5086 ft 309 kts 231°
2026-04-30 20:30 53.37336 -2.58997 4522 ft 282 kts 231°
2026-04-30 20:31 53.32895 -2.63942 3738 ft 248 kts 182°
2026-04-30 20:32 53.28115 -2.62117 3019 ft 226 kts 149°
2026-04-30 20:32 53.25371 -2.59395 2996 ft 226 kts 148°
2026-04-30 20:33 53.24006 -2.57979 2991 ft 225 kts 141°
2026-04-30 20:33 53.23047 -2.53383 2971 ft 206 kts 72°
2026-04-30 20:33 53.23745 -2.51296 2982 ft 198 kts 49°
2026-04-30 20:34 53.25602 -2.47749 2984 ft 200 kts 47°
2026-04-30 20:34 53.27380 -2.44131 2573 ft 191 kts 49°
2026-04-30 20:35 53.28213 -2.42383 2294 ft 185 kts 50°
2026-04-30 20:35 53.29010 -2.40712 2037 ft 175 kts 50°
2026-04-30 20:35 53.30412 -2.37745 1570 ft 148 kts 51°
2026-04-30 20:36 53.31072 -2.36371 1369 ft 146 kts 50°
2026-04-30 20:36 53.31721 -2.35055 1184 ft 143 kts 50°
2026-04-30 20:36 53.32991 -2.32432 822 ft 140 kts 51°
2026-04-30 20:37 53.33622 -2.31120 638 ft 139 kts 51°
2026-04-30 20:37 53.34235 -2.29858 448 ft 139 kts 51°
2026-04-30 20:37 53.34863 -2.28555 275 ft 141 kts 51°
2026-04-30 20:37 53.35436 -2.27372 260 ft 104 kts 51°
2026-04-30 20:38 53.35784 -2.26650 260 ft 54 kts 51°
2026-04-30 20:38 53.35983 -2.26236 260 ft 19 kts 51°
2026-04-30 20:38 53.36063 -2.26159 260 ft 12 kts 333°
2026-04-30 20:39 53.36140 -2.26278 260 ft 5 kts 280°
2026-04-30 20:39 53.36129 -2.26337 260 ft 5 kts 233°
2026-04-30 20:39 53.36102 -2.26395 260 ft 6 kts 232°
2026-04-30 20:40 53.36044 -2.26534 260 ft 7 kts 260°
2026-04-30 20:40 53.36064 -2.26620 260 ft 8 kts 276°
2026-04-30 20:40 53.36042 -2.26711 260 ft 8 kts 233°
2026-04-30 20:41 53.35990 -2.26821 260 ft 3 kts 231°
2026-04-30 20:41 53.35982 -2.26861 260 ft 4 kts 292°
2026-04-30 20:41 53.35998 -2.26898 260 ft 3 kts 312°
2026-04-30 20:41 53.36010 -2.26920 260 ft 0 kts 313°
2026-04-30 20:42 53.36013 -2.26926 260 ft 0 kts 313°
2026-04-30 20:42 53.36014 -2.26927 260 ft 0 kts 313°